| time (UTC) | temp F | wind direction | speed MPH | gust MPH | rain 1hr in | rain 24hr in | rain mn in | humidity % | barometer mb |
| 20260502181402 | 75 | 0 | 0.0 | 0.0 | 0.00 | 0.00 | 0.00 | 56 | 1013.3 |
| 20260502180902 | 75 | 0 | 0.0 | 0.0 | 0.00 | 0.00 | 0.00 | 55 | 1013.3 |
| 20260502180401 | 76 | 0 | 0.0 | 0.0 | 0.00 | 0.00 | 0.00 | 54 | 1013.3 |
| 20260502170134 | 79 | 307 | 1.0 | 4.0 | 0.00 | 0.00 | 0.00 | 50 | 1013.8 |
| 20260502164134 | 79 | 326 | 1.0 | 1.0 | 0.00 | 0.00 | 0.00 | 49 | 1014.2 |
| 20260502163634 | 78 | 339 | 2.0 | 3.0 | 0.00 | 0.00 | 0.00 | 49 | 1014.2 |
| 20260502163134 | 78 | 276 | 3.0 | 3.0 | 0.00 | 0.00 | 0.00 | 50 | 1014.2 |
| 20260502162634 | 77 | 291 | 1.0 | 2.0 | 0.00 | 0.00 | 0.00 | 51 | 1014.3 |
| 20260502162134 | 77 | 279 | 0.0 | 2.0 | 0.00 | 0.00 | 0.00 | 51 | 1014.5 |
| 20260502161634 | 77 | 298 | 2.0 | 5.0 | 0.00 | 0.00 | 0.00 | 50 | 1014.5 |
| 20260502161134 | 77 | 261 | 3.0 | 5.0 | 0.00 | 0.00 | 0.00 | 51 | 1014.5 |
| 20260502160635 | 76 | 290 | 1.0 | 3.0 | 0.00 | 0.00 | 0.00 | 51 | 1014.5 |
| 20260502160134 | 75 | 306 | 3.0 | 4.0 | 0.00 | 0.00 | 0.00 | 53 | 1014.6 |
| 20260502152134 | 75 | 303 | 3.0 | 5.0 | 0.00 | 0.00 | 0.00 | 53 | 1015.0 |
| 20260502151634 | 75 | 291 | 1.0 | 4.0 | 0.00 | 0.00 | 0.00 | 53 | 1015.2 |
| 20260502151135 | 75 | 313 | 2.0 | 3.0 | 0.00 | 0.00 | 0.00 | 52 | 1015.2 |
| 20260502150635 | 75 | 285 | 4.0 | 4.0 | 0.00 | 0.00 | 0.00 | 52 | 1015.3 |
| 20260502150134 | 75 | 271 | 2.0 | 3.0 | 0.00 | 0.00 | 0.00 | 52 | 1015.2 |
| 20260502130402 | 76 | 272 | 2.0 | 4.0 | 0.00 | 0.00 | 0.00 | 50 | 1016.4 |
| 20260502123401 | 75 | 285 | 1.0 | 2.0 | 0.00 | 0.00 | 0.00 | 51 | 1016.6 |
| 20260502122901 | 75 | 294 | 4.0 | 8.0 | 0.00 | 0.00 | 0.00 | 52 | 1016.7 |
| 20260502122402 | 75 | 254 | 3.0 | 5.0 | 0.00 | 0.00 | 0.00 | 51 | 1016.8 |
| 20260502121902 | 75 | 337 | 2.0 | 4.0 | 0.00 | 0.00 | 0.00 | 52 | 1016.8 |
| 20260502121401 | 75 | 235 | 2.0 | 4.0 | 0.00 | 0.00 | 0.00 | 51 | 1016.8 |
| 20260502120902 | 75 | 253 | 4.0 | 8.0 | 0.00 | 0.00 | 0.00 | 50 | 1016.9 |
| 20260502120402 | 75 | 273 | 3.0 | 6.0 | 0.00 | 0.00 | 0.00 | 51 | 1016.9 |
| 20260502115901 | 74 | 248 | 3.0 | 5.0 | 0.00 | 0.00 | 0.00 | 51 | 1017.0 |
| 20260502115401 | 74 | 291 | 3.0 | 4.0 | 0.00 | 0.00 | 0.00 | 52 | 1017.0 |
| 20260502114902 | 74 | 287 | 4.0 | 7.0 | 0.00 | 0.00 | 0.00 | 51 | 1017.1 |
| 20260502114404 | 74 | 299 | 2.0 | 4.0 | 0.00 | 0.00 | 0.00 | 52 | 1017.1 |
| 20260502113902 | 74 | 266 | 4.0 | 7.0 | 0.00 | 0.00 | 0.00 | 51 | 1017.1 |
| 20260502113402 | 73 | 221 | 4.0 | 6.0 | 0.00 | 0.00 | 0.00 | 51 | 1017.2 |
| 20260502112902 | 73 | 276 | 3.0 | 4.0 | 0.00 | 0.00 | 0.00 | 51 | 1017.2 |
| 20260502112401 | 72 | 210 | 2.0 | 3.0 | 0.00 | 0.00 | 0.00 | 51 | 1017.2 |
| 20260502111902 | 72 | 182 | 3.0 | 4.0 | 0.00 | 0.00 | 0.00 | 51 | 1017.2 |
| 20260502111402 | 71 | 162 | 3.0 | 3.0 | 0.00 | 0.00 | 0.00 | 51 | 1017.3 |
| 20260502110902 | 71 | 175 | 4.0 | 5.0 | 0.00 | 0.00 | 0.00 | 51 | 1017.4 |
| 20260502110402 | 71 | 24 | 2.0 | 3.0 | 0.00 | 0.00 | 0.00 | 51 | 1017.3 |
| 20260502105902 | 71 | 95 | 1.0 | 2.0 | 0.00 | 0.00 | 0.00 | 50 | 1017.4 |
| 20260502105401 | 71 | 155 | 2.0 | 3.0 | 0.00 | 0.00 | 0.00 | 50 | 1017.4 |
| 20260502104902 | 71 | 175 | 2.0 | 4.0 | 0.00 | 0.00 | 0.00 | 50 | 1017.4 |
| 20260502104401 | 72 | 192 | 3.0 | 4.0 | 0.00 | 0.00 | 0.00 | 49 | 1017.4 |
| 20260502103902 | 72 | 136 | 1.0 | 3.0 | 0.00 | 0.00 | 0.00 | 50 | 1017.4 |
| 20260502103402 | 72 | 301 | 2.0 | 3.0 | 0.00 | 0.00 | 0.00 | 49 | 1017.5 |
| 20260502102903 | 73 | 197 | 1.0 | 3.0 | 0.00 | 0.00 | 0.00 | 48 | 1017.5 |
| 20260502102402 | 74 | 177 | 1.0 | 2.0 | 0.00 | 0.00 | 0.00 | 47 | 1017.5 |
| 20260502101901 | 74 | 135 | 1.0 | 2.0 | 0.00 | 0.00 | 0.00 | 47 | 1017.5 |
| 20260502101401 | 73 | 290 | 3.0 | 4.0 | 0.00 | 0.00 | 0.00 | 47 | 1017.6 |
| 20260502100903 | 73 | 268 | 2.0 | 2.0 | 0.00 | 0.00 | 0.00 | 48 | 1017.7 |
| 20260502100401 | 73 | 187 | 2.0 | 3.0 | 0.00 | 0.00 | 0.00 | 48 | 1017.7 |
| 20260502091402 | 70 | 119 | 2.0 | 4.0 | 0.00 | 0.00 | 0.00 | 49 | 1018.0 |
| 20260502090901 | 70 | 227 | 1.0 | 2.0 | 0.00 | 0.00 | 0.00 | 49 | 1018.0 |
| 20260502090401 | 70 | 141 | 1.0 | 4.0 | 0.00 | 0.00 | 0.00 | 48 | 1018.0 |
| 20260502071402 | 64 | 131 | 2.0 | 4.0 | 0.00 | 0.00 | 0.00 | 51 | 1018.2 |
| 20260502070901 | 63 | 281 | 3.0 | 4.0 | 0.00 | 0.00 | 0.00 | 52 | 1018.2 |
| 20260502070401 | 63 | 29 | 2.0 | 2.0 | 0.00 | 0.00 | 0.00 | 52 | 1018.3 |
| 20260502065902 | 62 | 335 | 1.0 | 2.0 | 0.00 | 0.00 | 0.00 | 53 | 1018.4 |
| 20260502065402 | 62 | 290 | 1.0 | 2.0 | 0.00 | 0.00 | 0.00 | 54 | 1018.3 |
| 20260502064901 | 62 | 306 | 2.0 | 3.0 | 0.00 | 0.00 | 0.00 | 55 | 1018.3 |
| 20260502064401 | 61 | 188 | 3.0 | 4.0 | 0.00 | 0.00 | 0.00 | 55 | 1018.2 |
| 20260502063902 | 61 | 293 | 2.0 | 3.0 | 0.00 | 0.00 | 0.00 | 56 | 1018.2 |
| 20260502063401 | 60 | 198 | 2.0 | 4.0 | 0.00 | 0.00 | 0.00 | 57 | 1018.2 |
| 20260502062902 | 60 | 155 | 3.0 | 5.0 | 0.00 | 0.00 | 0.00 | 57 | 1018.2 |
| 20260502062401 | 59 | 168 | 4.0 | 5.0 | 0.00 | 0.00 | 0.00 | 57 | 1018.1 |
| 20260502061902 | 59 | 237 | 2.0 | 4.0 | 0.00 | 0.00 | 0.00 | 57 | 1018.1 |
| 20260502061402 | 59 | 164 | 4.0 | 5.0 | 0.00 | 0.00 | 0.00 | 58 | 1018.2 |
| 20260502060901 | 58 | 167 | 3.0 | 7.0 | 0.00 | 0.00 | 0.00 | 58 | 1018.2 |
| 20260502060402 | 58 | 162 | 4.0 | 6.0 | 0.00 | 0.00 | 0.00 | 58 | 1018.2 |
| 20260502055901 | 58 | 173 | 4.0 | 6.0 | 0.00 | 0.00 | 0.00 | 59 | 1018.2 |
| 20260502055401 | 57 | 158 | 5.0 | 8.0 | 0.00 | 0.00 | 0.00 | 59 | 1018.2 |
| 20260502054901 | 57 | 156 | 4.0 | 8.0 | 0.00 | 0.00 | 0.00 | 60 | 1018.3 |
| 20260502054402 | 56 | 321 | 2.0 | 3.0 | 0.00 | 0.00 | 0.00 | 61 | 1018.3 |
| 20260502053901 | 56 | 328 | 2.0 | 3.0 | 0.00 | 0.00 | 0.00 | 62 | 1018.3 |
| 20260502053403 | 55 | 316 | 2.0 | 2.0 | 0.00 | 0.00 | 0.00 | 63 | 1018.2 |
| 20260502052902 | 55 | 311 | 2.0 | 2.0 | 0.00 | 0.00 | 0.00 | 63 | 1018.2 |
| 20260502052401 | 55 | 192 | 2.0 | 3.0 | 0.00 | 0.00 | 0.00 | 63 | 1018.3 |
| 20260502051902 | 55 | 206 | 2.0 | 4.0 | 0.00 | 0.00 | 0.00 | 64 | 1018.2 |
| 20260502051401 | 54 | 296 | 2.0 | 2.0 | 0.00 | 0.00 | 0.00 | 64 | 1018.2 |
| 20260502050902 | 54 | 165 | 3.0 | 4.0 | 0.00 | 0.00 | 0.00 | 64 | 1018.2 |
| 20260502050402 | 54 | 184 | 2.0 | 3.0 | 0.00 | 0.00 | 0.00 | 65 | 1018.2 |
| 20260502045901 | 54 | 168 | 3.0 | 4.0 | 0.00 | 0.00 | 0.00 | 64 | 1018.2 |
| 20260502045401 | 54 | 161 | 4.0 | 4.0 | 0.00 | 0.00 | 0.00 | 64 | 1018.1 |
| 20260502044902 | 54 | 167 | 4.0 | 4.0 | 0.00 | 0.00 | 0.00 | 65 | 1018.2 |
| 20260502044401 | 53 | 159 | 4.0 | 5.0 | 0.00 | 0.00 | 0.00 | 65 | 1018.2 |
| 20260502043902 | 53 | 172 | 4.0 | 5.0 | 0.00 | 0.00 | 0.00 | 65 | 1018.2 |
| 20260502043401 | 53 | 167 | 4.0 | 4.0 | 0.00 | 0.00 | 0.00 | 65 | 1018.3 |
| 20260502042901 | 53 | 161 | 4.0 | 4.0 | 0.00 | 0.00 | 0.00 | 65 | 1018.3 |
| 20260502042402 | 53 | 174 | 4.0 | 4.0 | 0.00 | 0.00 | 0.00 | 65 | 1018.3 |
| 20260502041901 | 54 | 169 | 4.0 | 4.0 | 0.00 | 0.00 | 0.00 | 65 | 1018.3 |
| 20260502041401 | 54 | 171 | 4.0 | 4.0 | 0.00 | 0.00 | 0.00 | 64 | 1018.3 |
| 20260502040902 | 54 | 163 | 4.0 | 5.0 | 0.00 | 0.00 | 0.00 | 64 | 1018.4 |
| 20260502040402 | 54 | 161 | 4.0 | 6.0 | 0.00 | 0.00 | 0.00 | 63 | 1018.4 |
| 20260502035902 | 54 | 159 | 4.0 | 4.0 | 0.00 | 0.00 | 0.00 | 63 | 1018.5 |
| 20260502035401 | 54 | 167 | 4.0 | 4.0 | 0.00 | 0.00 | 0.00 | 63 | 1018.6 |
| 20260502034901 | 54 | 156 | 4.0 | 5.0 | 0.00 | 0.00 | 0.00 | 63 | 1018.6 |
| 20260502034401 | 54 | 188 | 2.0 | 3.0 | 0.00 | 0.00 | 0.00 | 63 | 1018.6 |
| 20260502033902 | 55 | 166 | 3.0 | 4.0 | 0.00 | 0.00 | 0.00 | 62 | 1018.7 |
| 20260502033401 | 55 | 175 | 3.0 | 5.0 | 0.00 | 0.00 | 0.00 | 62 | 1018.7 |
| 20260502032901 | 55 | 149 | 4.0 | 5.0 | 0.00 | 0.00 | 0.00 | 62 | 1018.6 |
| 20260502032401 | 55 | 152 | 4.0 | 4.0 | 0.00 | 0.00 | 0.00 | 62 | 1018.7 |
| 20260502031902 | 55 | 155 | 4.0 | 4.0 | 0.00 | 0.00 | 0.00 | 62 | 1018.7 |
| 20260502031402 | 55 | 180 | 3.0 | 4.0 | 0.00 | 0.00 | 0.00 | 61 | 1018.7 |
| 20260502030901 | 55 | 144 | 4.0 | 4.0 | 0.00 | 0.00 | 0.00 | 61 | 1018.7 |
| 20260502030402 | 55 | 165 | 2.0 | 3.0 | 0.00 | 0.00 | 0.00 | 61 | 1018.8 |
| 20260502025902 | 55 | 161 | 2.0 | 3.0 | 0.00 | 0.00 | 0.00 | 61 | 1018.8 |
| 20260502025402 | 55 | 202 | 1.0 | 3.0 | 0.00 | 0.00 | 0.00 | 61 | 1018.8 |
| 20260502024901 | 56 | 201 | 2.0 | 3.0 | 0.00 | 0.00 | 0.00 | 60 | 1018.9 |
| 20260502024402 | 56 | 278 | 2.0 | 3.0 | 0.00 | 0.00 | 0.00 | 59 | 1018.8 |
| 20260502023901 | 56 | 153 | 2.0 | 4.0 | 0.00 | 0.00 | 0.00 | 59 | 1018.8 |
| 20260502023401 | 56 | 348 | 2.0 | 3.0 | 0.00 | 0.00 | 0.00 | 59 | 1018.8 |
| 20260502022902 | 56 | 230 | 2.0 | 4.0 | 0.00 | 0.00 | 0.00 | 58 | 1018.9 |
| 20260502022403 | 57 | 115 | 1.0 | 1.0 | 0.00 | 0.00 | 0.00 | 58 | 1018.9 |
| 20260502021901 | 57 | 153 | 3.0 | 4.0 | 0.00 | 0.00 | 0.00 | 58 | 1019.0 |
| 20260502021402 | 57 | 132 | 3.0 | 5.0 | 0.00 | 0.00 | 0.00 | 57 | 1019.0 |
| 20260502020901 | 57 | 134 | 4.0 | 6.0 | 0.00 | 0.00 | 0.00 | 57 | 1019.1 |
| 20260502020401 | 57 | 197 | 2.0 | 5.0 | 0.00 | 0.00 | 0.00 | 57 | 1019.1 |
| 20260502015901 | 57 | 69 | 4.0 | 6.0 | 0.00 | 0.00 | 0.00 | 57 | 1019.2 |
| 20260502015402 | 57 | 204 | 3.0 | 6.0 | 0.00 | 0.00 | 0.00 | 57 | 1019.2 |
| 20260502014901 | 57 | 329 | 1.0 | 2.0 | 0.00 | 0.00 | 0.00 | 57 | 1019.2 |
| 20260502014401 | 58 | 136 | 3.0 | 4.0 | 0.00 | 0.00 | 0.00 | 56 | 1019.3 |
| 20260502013901 | 58 | 124 | 3.0 | 5.0 | 0.00 | 0.00 | 0.00 | 56 | 1019.3 |
| 20260502013402 | 58 | 138 | 3.0 | 5.0 | 0.00 | 0.00 | 0.00 | 56 | 1019.4 |
| 20260502012902 | 58 | 159 | 2.0 | 5.0 | 0.00 | 0.00 | 0.00 | 56 | 1019.4 |
| 20260502012401 | 58 | 113 | 3.0 | 5.0 | 0.00 | 0.00 | 0.00 | 55 | 1019.5 |
| 20260502011901 | 58 | 123 | 3.0 | 7.0 | 0.00 | 0.00 | 0.00 | 55 | 1019.6 |
| 20260502011402 | 58 | 141 | 5.0 | 7.0 | 0.00 | 0.00 | 0.00 | 55 | 1019.6 |
| 20260502010902 | 58 | 146 | 6.0 | 7.0 | 0.00 | 0.00 | 0.00 | 54 | 1019.6 |
| 20260502010402 | 58 | 187 | 4.0 | 7.0 | 0.00 | 0.00 | 0.00 | 55 | 1019.6 |
| 20260502005902 | 58 | 136 | 3.0 | 5.0 | 0.00 | 0.00 | 0.00 | 55 | 1019.7 |
| 20260502005401 | 58 | 147 | 5.0 | 7.0 | 0.00 | 0.00 | 0.00 | 55 | 1019.8 |
| 20260502004902 | 58 | 143 | 3.0 | 6.0 | 0.00 | 0.00 | 0.00 | 54 | 1019.8 |
| 20260502004402 | 58 | 143 | 3.0 | 4.0 | 0.00 | 0.00 | 0.00 | 54 | 1019.8 |
| 20260502003902 | 58 | 156 | 4.0 | 6.0 | 0.00 | 0.00 | 0.00 | 54 | 1019.9 |
| 20260502003402 | 59 | 162 | 3.0 | 5.0 | 0.00 | 0.00 | 0.00 | 54 | 1019.9 |
| 20260502002902 | 59 | 163 | 4.0 | 6.0 | 0.00 | 0.00 | 0.00 | 54 | 1020.0 |
| 20260502002402 | 59 | 145 | 3.0 | 5.0 | 0.00 | 0.00 | 0.00 | 54 | 1020.0 |
| 20260502001901 | 59 | 159 | 3.0 | 5.0 | 0.00 | 0.00 | 0.00 | 54 | 1020.0 |
| 20260502001402 | 59 | 174 | 3.0 | 6.0 | 0.00 | 0.00 | 0.00 | 54 | 1020.1 |
| 20260502000901 | 59 | 157 | 4.0 | 6.0 | 0.00 | 0.00 | 0.00 | 54 | 1020.1 |
| 20260502000402 | 59 | 160 | 3.0 | 5.0 | 0.00 | 0.00 | 0.00 | 53 | 1020.1 |
| 20260501235901 | 59 | 161 | 4.0 | 6.0 | 0.00 | 0.00 | 0.00 | 53 | 1020.1 |
| 20260501235403 | 58 | 148 | 4.0 | 5.0 | 0.00 | 0.00 | 0.00 | 54 | 1020.1 |
| 20260501234902 | 58 | 156 | 4.0 | 6.0 | 0.00 | 0.00 | 0.00 | 54 | 1020.2 |
| 20260501234401 | 57 | 146 | 4.0 | 5.0 | 0.00 | 0.00 | 0.00 | 56 | 1020.1 |
| 20260501233901 | 56 | 21 | 2.0 | 4.0 | 0.00 | 0.00 | 0.00 | 58 | 1020.1 |
| 20260501233401 | 56 | 282 | 2.0 | 4.0 | 0.00 | 0.00 | 0.00 | 60 | 1020.2 |
| 20260501232902 | 56 | 330 | 1.0 | 1.0 | 0.00 | 0.00 | 0.00 | 61 | 1020.2 |
| 20260501232402 | 56 | 339 | 2.0 | 2.0 | 0.00 | 0.00 | 0.00 | 62 | 1020.2 |
| 20260501231902 | 56 | 94 | 2.0 | 3.0 | 0.00 | 0.00 | 0.00 | 63 | 1020.2 |
| 20260501231402 | 56 | 343 | 1.0 | 2.0 | 0.00 | 0.00 | 0.00 | 64 | 1020.2 |
| 20260501230902 | 56 | 293 | 1.0 | 2.0 | 0.00 | 0.00 | 0.00 | 65 | 1020.2 |
| 20260501230401 | 56 | 335 | 1.0 | 2.0 | 0.00 | 0.00 | 0.00 | 65 | 1020.3 |
| 20260501225903 | 56 | 332 | 1.0 | 1.0 | 0.00 | 0.00 | 0.00 | 64 | 1020.2 |
| 20260501225401 | 56 | 309 | 2.0 | 2.0 | 0.00 | 0.00 | 0.00 | 65 | 1020.3 |
| 20260501224902 | 56 | 331 | 1.0 | 1.0 | 0.00 | 0.00 | 0.00 | 64 | 1020.3 |
| 20260501224401 | 56 | 339 | 2.0 | 2.0 | 0.00 | 0.00 | 0.00 | 63 | 1020.4 |
| 20260501223902 | 56 | 331 | 1.0 | 1.0 | 0.00 | 0.00 | 0.00 | 63 | 1020.4 |
| 20260501223402 | 56 | 338 | 2.0 | 2.0 | 0.00 | 0.00 | 0.00 | 64 | 1020.4 |
| 20260501222901 | 57 | 336 | 1.0 | 2.0 | 0.00 | 0.00 | 0.00 | 64 | 1020.5 |
| 20260501222402 | 57 | 335 | 2.0 | 2.0 | 0.00 | 0.00 | 0.00 | 66 | 1020.5 |
| 20260501221903 | 57 | 329 | 1.0 | 1.0 | 0.00 | 0.00 | 0.00 | 64 | 1020.5 |
| 20260501221401 | 57 | 341 | 1.0 | 2.0 | 0.00 | 0.00 | 0.00 | 66 | 1020.6 |
| 20260501220901 | 57 | 335 | 1.0 | 2.0 | 0.00 | 0.00 | 0.00 | 66 | 1020.6 |
| 20260501220405 | 57 | 344 | 2.0 | 2.0 | 0.00 | 0.00 | 0.00 | 65 | 1020.6 |
| 20260501215901 | 58 | 348 | 1.0 | 2.0 | 0.00 | 0.00 | 0.00 | 65 | 1020.6 |
| 20260501215401 | 58 | 7 | 2.0 | 3.0 | 0.00 | 0.00 | 0.00 | 64 | 1020.6 |
| 20260501214901 | 58 | 121 | 3.0 | 4.0 | 0.00 | 0.00 | 0.00 | 64 | 1020.6 |
| 20260501214402 | 58 | 338 | 2.0 | 2.0 | 0.00 | 0.00 | 0.00 | 64 | 1020.6 |
| 20260501213903 | 58 | 325 | 2.0 | 3.0 | 0.00 | 0.00 | 0.00 | 64 | 1020.6 |
| 20260501213402 | 58 | 334 | 1.0 | 2.0 | 0.00 | 0.00 | 0.00 | 65 | 1020.7 |
| 20260501212902 | 58 | 334 | 1.0 | 2.0 | 0.00 | 0.00 | 0.00 | 64 | 1020.7 |
| 20260501212402 | 58 | 337 | 2.0 | 2.0 | 0.00 | 0.00 | 0.00 | 64 | 1020.7 |
| 20260501211902 | 59 | 336 | 1.0 | 2.0 | 0.00 | 0.00 | 0.00 | 64 | 1020.7 |
| 20260501211401 | 59 | 333 | 2.0 | 2.0 | 0.00 | 0.00 | 0.00 | 65 | 1020.7 |
| 20260501210902 | 59 | 333 | 1.0 | 2.0 | 0.00 | 0.00 | 0.00 | 63 | 1020.7 |
| 20260501210404 | 59 | 332 | 1.0 | 1.0 | 0.00 | 0.00 | 0.00 | 64 | 1020.7 |
| 20260501205901 | 59 | 325 | 2.0 | 3.0 | 0.00 | 0.00 | 0.00 | 63 | 1020.8 |
| 20260501205402 | 60 | 135 | 2.0 | 3.0 | 0.00 | 0.00 | 0.00 | 62 | 1020.8 |
| 20260501204901 | 60 | 149 | 3.0 | 3.0 | 0.00 | 0.00 | 0.00 | 63 | 1020.8 |
| 20260501204401 | 60 | 11 | 2.0 | 3.0 | 0.00 | 0.00 | 0.00 | 62 | 1020.8 |
| 20260501203902 | 60 | 6 | 2.0 | 3.0 | 0.00 | 0.00 | 0.00 | 62 | 1020.9 |
| 20260501203401 | 61 | 331 | 1.0 | 1.0 | 0.00 | 0.00 | 0.00 | 61 | 1020.9 |
| 20260501202903 | 61 | 329 | 1.0 | 1.0 | 0.00 | 0.00 | 0.00 | 60 | 1021.0 |
| 20260501202402 | 61 | 17 | 2.0 | 3.0 | 0.00 | 0.00 | 0.00 | 60 | 1020.9 |
| 20260501201901 | 62 | 342 | 2.0 | 2.0 | 0.00 | 0.00 | 0.00 | 58 | 1020.9 |
| 20260501201402 | 62 | 337 | 1.0 | 1.0 | 0.00 | 0.00 | 0.00 | 57 | 1020.9 |
| 20260501200902 | 62 | 336 | 1.0 | 1.0 | 0.00 | 0.00 | 0.00 | 57 | 1020.9 |
| 20260501200401 | 63 | 332 | 1.0 | 1.0 | 0.00 | 0.00 | 0.00 | 55 | 1020.9 |
| 20260501195901 | 64 | 335 | 1.0 | 1.0 | 0.00 | 0.00 | 0.00 | 56 | 1020.9 |
| 20260501195401 | 64 | 331 | 1.0 | 1.0 | 0.00 | 0.00 | 0.00 | 54 | 1020.9 |
| 20260501194902 | 65 | 16 | 1.0 | 2.0 | 0.00 | 0.00 | 0.00 | 53 | 1020.8 |
| 20260501194401 | 66 | 335 | 1.0 | 1.0 | 0.00 | 0.00 | 0.00 | 50 | 1020.8 |
| 20260501193901 | 66 | 333 | 1.0 | 1.0 | 0.00 | 0.00 | 0.00 | 49 | 1020.8 |
| 20260501193401 | 67 | 328 | 2.0 | 3.0 | 0.00 | 0.00 | 0.00 | 47 | 1020.8 |
| 20260501192902 | 67 | 331 | 1.0 | 1.0 | 0.00 | 0.00 | 0.00 | 47 | 1020.9 |
| 20260501192402 | 68 | 333 | 1.0 | 1.0 | 0.00 | 0.00 | 0.00 | 45 | 1020.9 |
| 20260501191904 | 68 | 343 | 1.0 | 1.0 | 0.00 | 0.00 | 0.00 | 45 | 1020.9 |
| 20260501191402 | 69 | 21 | 1.0 | 1.0 | 0.00 | 0.00 | 0.00 | 45 | 1020.9 |
| 20260501190901 | 70 | 101 | 2.0 | 2.0 | 0.00 | 0.00 | 0.00 | 44 | 1020.8 |
| 20260501190401 | 70 | 3 | 1.0 | 1.0 | 0.00 | 0.00 | 0.00 | 42 | 1020.8 |
| 20260501185901 | 71 | 6 | 0.0 | 1.0 | 0.00 | 0.00 | 0.00 | 41 | 1020.8 |
| 20260501185401 | 71 | 99 | 1.0 | 2.0 | 0.00 | 0.00 | 0.00 | 40 | 1020.8 |
| 20260501184901 | 72 | 122 | 1.0 | 2.0 | 0.00 | 0.00 | 0.00 | 39 | 1020.9 |
| 20260501184402 | 72 | 86 | 2.0 | 2.0 | 0.00 | 0.00 | 0.00 | 39 | 1020.8 |
| 20260501183902 | 73 | 18 | 0.0 | 1.0 | 0.00 | 0.00 | 0.00 | 38 | 1020.9 |
| 20260501183402 | 73 | 134 | 2.0 | 4.0 | 0.00 | 0.00 | 0.00 | 37 | 1020.9 |
| 20260501182903 | 74 | 131 | 2.0 | 3.0 | 0.00 | 0.00 | 0.00 | 37 | 1020.8 |
| 20260501182403 | 74 | 140 | 3.0 | 4.0 | 0.00 | 0.00 | 0.00 | 36 | 1020.8 |
| 20260501181902 | 74 | 114 | 2.0 | 3.0 | 0.00 | 0.00 | 0.00 | 36 | 1020.8 |